{"data":{"norad_id":32388,"intl_designator":"2007-063B","name":"HORIZONS-2","alt_names":[],"object_type":"PAYLOAD","status":"ACTIVE","operator":null,"country":"ITSO","launch_date":"2007-12-21","launch_site_code":"FRGUI","launch_vehicle":null,"mission":null,"orbit_class":"UNKNOWN","rcs_meters":17.3208,"size_class":null,"mass_kg":null,"dimensions":null,"purposes":["comms"],"wikipedia_slug":null,"has_3d_model":false,"image_url":null,"decayed_at":null,"tle_current":{"epoch":"2026-09-19T21:45:08.811072Z","epoch_age_seconds":66025,"freshness":"FRESH","line1":"1 32388U 07063B   26262.90635198 -.00000257  00000+0  00000+0 0  9992","line2":"2 32388   2.8390  79.3776 0001437 104.5394  67.3973  1.00271086 68765","mean_motion":1.00271086,"eccentricity":0.0001437,"inclination_deg":2.839,"raan_deg":79.3776,"arg_perigee_deg":104.5394,"mean_anomaly_deg":67.3973,"bstar":0,"rev_number":6876,"period_min":1436.1069152078,"perigee_km":35780.731817262,"apogee_km":35792.850017545,"semimajor_km":42164.927917403,"source":"CELESTRAK","updated_at":"2026-09-20T09:00:35.516771Z"}}}